Regional Weather Roundup
Issued by NWS Charleston, SC

Home | Current Version | Previous Version | Text Only | Print | Product List | Glossary On
Versions: 1 2 3 4 5 6 7 8 9 10 11 12 13 14 15 16 17 18 19 20 21 22 23 24 25 26 27 28 29 30 31 32 33 34 35 36 37 38 39 40 41 42 43 44 45 46 47 48 49 50
000
ASUS42 KCHS 070112
RWRCHS

REGIONAL WEATHER ROUNDUP
NATIONAL WEATHER SERVICE CHARLESTON SC
900 PM EDT WED MAY 06 2015

NOTE: "FAIR" INDICATES FEW OR NO CLOUDS BELOW 12,000 FEET WITH NO
SIGNIFICANT WEATHER AND/OR OBSTRUCTIONS TO VISIBILITY.

NOT ALL STATIONS ARE QUALITY CONTROLLED BY THE NATIONAL
WEATHER SERVICE. USE DATA WITH CAUTION...ESPECIALLY
DEWPOINT OBSERVATIONS.

SCZ027-030-031-034>040-042>050-070200-
...SOUTHEAST SOUTH CAROLINA...

CITY           SKY/WX    TMP DP  RH WIND       PRES   REMARKS
N CHARLESTON   MOCLDY    68  56  65 NE3       30.08S
WATERFRONT PRK NOT AVBL
MOUNT PLEASANT FAIR      68  59  73 MISG      30.09S
PINOPOLIS      NOT AVBL
MONCKS CORNER  FAIR      70  57  64 E3        30.09S
SUMMERVILLE    FAIR      70  59  68 E3        30.10S
BEAUFORT MCAS  MOCLDY    70  62  76 E3        30.08R
BEAUFORT ARPT  FAIR      70  63  78 E7        30.08R
HILTON HEAD IS MOCLDY    72  63  73 NE7       30.09S
WALTERBORO     PTCLDY    68  57  68 E6        30.09S
ALLENDALE      FAIR      68  57  68 CALM      30.08S

...SOUTHERN MIDLANDS AND PEE DEE...

CITY           SKY/WX    TMP DP  RH WIND       PRES   REMARKS
GEORGETOWN     NOT AVBL
KINGSTREE      NOT AVBL
ORANGEBURG     MOCLDY    66  55  67 CALM      30.09S
BARNWELL       FAIR      68  57  68 CALM      30.10S
AIKEN          FAIR      70  52  52 CALM      30.14R
MANNING        FAIR      64  54  68 CALM      30.10R
COLUMBIA       MOCLDY    70  54  56 CALM      30.09S
SUMTER         MOCLDY    65  51  59 E5        30.09R
FLORENCE       MOCLDY    69  55  60 E9        30.10S
MYRTLE BEACH   CLEAR     70  55  60 NE12      30.12S
N MYRTLE BEACH CLOUDY    67  56  67 N6        30.10S

$$

GAZ063-065-086>088-099>101-113>116-118-119-134>141-150-070200-
...SOUTHEAST GEORGIA...

CITY           SKY/WX    TMP DP  RH WIND       PRES   REMARKS
SAVANNAH ARPT  CLOUDY    70  59  68 E7        30.09R
HUNTER AAF     MOCLDY    71  62  73 E6        30.07R
FORT STEWART   CLOUDY    69  60  73 CALM      30.07R
STATESBORO       N/A     67  60  77 CALM      30.09R
SYLVANIA       CLOUDY    67  61  80 CALM      30.10R
CLAXTON        FAIR      68  63  83 CALM      30.10R

...CSRA...CENTRAL AND FAR SOUTHEAST GEORGIA...

CITY           SKY/WX    TMP DP  RH WIND       PRES   REMARKS
THOMSON        CLEAR     69  62  78 CALM      30.15R
AUGUSTA-BUSH   MOCLDY    67  59  75 CALM      30.09S
AUGUSTA-DANIEL MOCLDY    76  51  41 E5        30.11R
SWAINSBORO     FAIR      70  45  40 E5        30.11R
VIDALIA        CLEAR     70  59  68 CALM      30.09S
EASTMAN        FAIR      67  57  71 CALM      30.11R
HAZLEHURST     FAIR      73  62  70 E3        30.08R
ALMA           CLEAR     67  62  84 CALM      30.08R
WAYCROSS       CLEAR     72  65  79 CALM      30.08S
JESUP          FAIR      72  66  83 SE3       30.10R
BAXLEY         FAIR      70  64  83 CALM      30.08R
BRUNSWICK      CLOUDY    70  63  78 NE5       30.09S
SAINT SIMONS   CLOUDY    70  63  78 NE7       30.08R

$$

SCZ027-028-034-036>038-045-046-048>050-GAZ119-141-070200-
...LAKE AND SUPPLEMENTAL COASTAL OBSERVATIONS...

STATION/POSITION TIME  TEMP    WIND        PRES    WAVE   SWELL
                       AIR SEA DIR/SP/G            HT/PER HT/PER/DIR
                 (UTC) (F)     (DEG/KT/KT) (MB)    (FT/S) (FT/S/D)
UPR LAKE MARION  NOT AVBL
WINYAH BAY       NOT AVBL
LAKE MURRAY      0000   77      80/  7/  8 1018.6R
ACE BASIN NERRS  NOT AVBL
FORT PULASKI     0000   71 72   50/ 11/ 13 1019.0F
SAPELO ISLAND    0000   71      50/  6     1018.0S

$$

ANZ835-935-AMZ111-154-330-350-352-354-370-450-454-472-070200-
...C-MAN AND BUOY OBSERVATIONS...

STATION/POSITION TIME  TEMP    WIND        PRES    WAVE   SWELL
                       AIR SEA DIR/SP/G            HT/PER HT/PER/DIR
                 (UTC) (F)     (DEG/KT/KT) (MB)    (FT/S) (FT/S/D)
BUOY 41004       0050   71 74   20/ 21/ 27 1016.6F   8/ 9   5/ 9
BUOY 41008       0050   70 70   50/ 12/ 16 1018.3R   7/ 8   5/100/ 8
FOLLY BEACH CMAN 0100   70      40/ 17/ 19 1018.6F
CAPERS NEARSHORE 0008   71      60/ 17/ 25 1018.6F
FRIPP NEARSHORE  0000   71      70/ 21/ 23 1017.7F


STATION/POSITION TIME  TEMP    WIND        PRES    WAVE   SWELL
                       AIR SEA DIR/SP/G            HT/PER HT/PER/DIR
                 (UTC) (F)     (DEG/KT/KT) (MB)    (FT/S) (FT/S/D)
5E ST. MARYS GA  0021      71                N/A     6/ 8   2/110/11
FRYING PAN BUOY  0050   72 72   80/ 19/ 23 1018.2F   7/ 8
BUOY 41025       0050   71 74  100/ 16/ 17 1020.6S   5/ 5   2/110/ 8
CAPE LOOKOUT NC  0000   69      60/ 10/ 12 1019.9R
BUOY 41002       0050   71 71  130/ 14/ 17 1016.3R   8/ 8   5/130/ 8
BUOY 41010       0020   73 77  330/ 17/ 21 1014.2R
ST AUGUSTINE FL  0100   70 73   30/ 11/ 12 1018.3S


$$


USA.gov is the U.S. government's official web portal to all federal, state and local government web resources and services.